FW2510 Weather Reports


time (UTC)temp
C
wind
direction
speed
KPH
gust
KPH
rain 1hr
cm
rain 24hr
cm
rain mn
cm
humidity
%
barometer
mb
20260505034613 17 171 0.0 6.4 0.00 0.00 0.00 38 1015.9
20260505033055 17 204 0.0 6.4 0.00 0.00 0.00 37 1016.0
20260505031555 17 189 0.0 6.4 0.00 0.00 0.00 37 1015.9
20260505030023 17 159 0.0 1.6 0.00 0.00 0.00 35 1015.9
20260505024520 18 213 0.0 1.6 0.00 0.00 0.00 35 1016.1
20260505023050 18 213 0.0 0.0 0.00 0.00 0.00 34 1015.8
20260505021549 18 213 0.0 0.0 0.00 0.00 0.00 33 1015.7
20260505020019 18 169 0.0 1.6 0.00 0.00 0.00 32 1015.6
20260505014518 18 169 0.0 0.0 0.00 0.00 0.00 32 1015.6
20260505013048 19 169 0.0 1.6 0.00 0.00 0.00 30 1015.4
20260505011609 20 169 0.0 0.0 0.00 0.00 0.00 29 1015.3
20260505010049 20 169 0.0 0.0 0.00 0.00 0.00 28 1015.1
20260505004547 21 169 0.0 0.0 0.00 0.00 0.00 26 1015.0
20260505003047 21 169 0.0 0.0 0.00 0.00 0.00 25 1014.7
20260505001551 21 169 0.0 0.0 0.00 0.00 0.00 24 1014.7
20260505000055 22 217 0.0 4.8 0.00 0.00 0.00 24 1014.6
20260504234541 22 137 0.0 8.0 0.00 0.00 0.00 22 1014.4
20260504233055 23 139 0.0 11.3 0.00 0.00 0.00 21 1014.3
20260504231540 23 149 1.6 11.3 0.00 0.00 0.00 21 1014.2
20260504230036 23 155 0.0 3.2 0.00 0.00 0.00 21 1014.1
20260504224541 24 126 0.0 11.3 0.00 0.00 0.00 19 1014.2
20260504223035 25 192 0.0 11.3 0.00 0.00 0.00 19 1014.2
20260504221534 25 90 0.0 11.3 0.00 0.00 0.00 18 1014.1
20260504220004 25 169 1.6 12.9 0.00 0.00 0.00 16 1014.2
20260504214506 25 198 1.6 11.3 0.00 0.00 0.00 18 1014.2
20260504213100 25 211 1.6 11.3 0.00 0.00 0.00 20 1014.2
20260504211558 25 173 0.0 14.5 0.00 0.00 0.00 20 1014.2
20260504210059 25 167 3.2 16.1 0.00 0.00 0.00 18 1014.3
20260504204558 25 132 0.0 14.5 0.00 0.00 0.00 19 1014.5
20260504203025 25 146 0.0 6.4 0.00 0.00 0.00 19 1014.7
20260504201521 25 122 0.0 14.5 0.00 0.00 0.00 20 1014.8
20260504200016 25 138 1.6 17.7 0.00 0.00 0.00 19 1015.3
20260504194516 24 132 1.6 12.9 0.00 0.00 0.00 20 1015.3
20260504193014 24 154 3.2 17.7 0.00 0.00 0.00 21 1015.5
20260504191513 24 171 0.0 19.3 0.00 0.00 0.00 23 1015.7
20260504190008 24 109 1.6 12.9 0.00 0.00 0.00 24 1015.7
20260504184504 23 161 3.2 16.1 0.00 0.00 0.00 26 1016.1
20260504183002 23 174 3.2 16.1 0.00 0.00 0.00 22 1016.2
20260504181603 23 127 0.0 14.5 0.00 0.00 0.00 22 1016.4
20260504180027 23 126 3.2 9.7 0.00 0.00 0.00 23 1016.6
20260504174527 22 116 4.8 14.5 0.00 0.00 0.00 20 1016.6
20260504173022 22 152 1.6 9.7 0.00 0.00 0.00 22 1016.7
20260504171530 22 129 0.0 8.0 0.00 0.00 0.00 24 1017.0
20260504150126 18 148 0.0 6.4 0.00 0.00 0.00 33 1018.3
20260504090105 8 215 0.0 0.0 0.00 0.00 0.00 59 1017.7
20260504081541 9 215 0.0 0.0 0.00 0.00 0.00 57 1017.5
20260504044520 11 171 0.0 0.0 0.00 0.00 0.00 52 1017.4
20260504043016 11 171 0.0 0.0 0.00 0.00 0.00 51 1017.5
20260504041516 12 171 0.0 1.6 0.00 0.00 0.00 50 1017.7
20260504040014 12 171 0.0 0.0 0.00 0.00 0.00 49 1017.8